Lubbock, TX

5:35 PM CST on December 04, 2016 (GMT -0600)
Lubbock International

Weather History for KLBB - July, 2013

Change the Weather History Date:

Saturday, July 13, 2013

  Actual Average Record
Temperature  
Mean Temperature 87 °F 80 °F  
Max Temperature 99 °F 93 °F 108 °F (2016)
Min Temperature 74 °F 68 °F 54 °F (1953)
Degree Days  
Heating Degree Days 0 0  
Month to date heating degree days 0 0  
Since 1 June heating degree days 0 2  
Since 1 July heating degree days 0 0  
Cooling Degree Days 22 15  
Month to date cooling degree days 217 195  
Year to date cooling degree days 1006 815  
Since 1 June cooling degree days 691 569  
Growing Degree Days 36 (Base 50)    
Moisture  
Dew Point 48 °F    
Average Humidity 31    
Maximum Humidity 46    
Minimum Humidity 15    
Precipitation  
Precipitation 0.00 in 0.06 in 1.46 in (2000)
Month to date precipitation 0.09 0.90  
Year to date precipitation 5.18 10.15  
Snow  
Snow 0.00 in 0.00 in 0.00 in (2002)
Month to date snowfall 0.0 0.0  
Since 1 June snowfall 0.0 0.0  
Since 1 July snowfall 0.0 0.0  
Snow Depth 0.00 in    
Sea Level Pressure  
Sea Level Pressure 29.87 in    
Wind  
Wind Speed 10 mph (South)    
Max Wind Speed 18 mph    
Max Gust Speed 24 mph    
Visibility 10 miles    
Events      
T = Trace of Precipitation, MM = Missing Value Source: NWS Daily Summary

Daily Weather History Graph

Daily Weather History Graph

Search for Another Location

Airport or City:

Trip Planner

Search our weather history database for the weather conditions in past years. The results will help you decide how hot, cold, wet, or windy it might be!

Date:

Astronomy

Jul. 13, 2013 Rise Set
Actual Time 6:46 AM CDT 8:59 PM CDT
Civil Twilight 6:18 AM CDT 9:27 PM CDT
Nautical Twilight 5:43 AM CDT 10:02 PM CDT
Astronomical Twilight 5:06 AM CDT 10:39 PM CDT
Moon 11:47 AM CDT (7/13) 11:59 PM CDT (7/13)
Length of Visible Light 15h 08m
Length of Day
14h 12m
Waxing Crescent, 26% of the Moon is Illuminated
Jul 13
Waxing Crescent
Jul 15
First Quarter
Jul 22
Full
Jul 29
Last Quarter
Aug 6
New

Hourly Weather History & Observations

Time (CDT) Temp. Heat Index Dew Point Humidity Pressure Visibility Wind Dir Wind Speed Gust Speed Precip Events Conditions
12:53 AM 81.0 °F - 51.1 °F 35% 29.86 in 10.0 mi SSE 9.2 mph - N/A   Clear
1:53 AM 78.1 °F - 51.1 °F 39% 29.87 in 10.0 mi SE 6.9 mph - N/A   Clear
2:53 AM 77.0 °F - 50.0 °F 39% 29.87 in 10.0 mi SSE 9.2 mph - N/A   Clear
3:53 AM 78.1 °F - 48.9 °F 36% 29.87 in 10.0 mi South 9.2 mph - N/A   Clear
4:53 AM 78.1 °F - 48.9 °F 36% 29.88 in 10.0 mi SSW 10.4 mph - N/A   Clear
5:53 AM 77.0 °F - 51.1 °F 40% 29.89 in 10.0 mi SW 11.5 mph - N/A   Clear
6:53 AM 75.0 °F - 52.0 °F 44% 29.91 in 10.0 mi SW 8.1 mph - N/A   Partly Cloudy
7:53 AM 75.9 °F - 53.1 °F 45% 29.92 in 10.0 mi WSW 4.6 mph - N/A   Partly Cloudy
8:53 AM 82.0 °F 81.2 °F 53.1 °F 37% 29.94 in 10.0 mi SW 10.4 mph - N/A   Partly Cloudy
9:53 AM 86.0 °F 84.0 °F 53.1 °F 32% 29.94 in 10.0 mi SSW 13.8 mph - N/A   Clear
10:53 AM 89.1 °F - 52.0 °F 28% 29.93 in 10.0 mi SW 11.5 mph - N/A   Clear
11:53 AM 91.9 °F - 52.0 °F 26% 29.93 in 10.0 mi South 9.2 mph - N/A   Clear
12:53 PM 98.6 °F - 51.1 °F 20% 29.91 in 10.0 mi South 10.4 mph 19.6 mph N/A   Partly Cloudy
1:53 PM 96.1 °F - 51.1 °F 22% 29.89 in - SSE 13.8 mph 19.6 mph N/A   Partly Cloudy
2:53 PM 96.1 °F - 48.9 °F 20% 29.87 in 10.0 mi South 16.1 mph 20.7 mph N/A   Partly Cloudy
3:53 PM 98.1 °F - 48.9 °F 19% 29.85 in 10.0 mi South 13.8 mph 18.4 mph N/A   Partly Cloudy
4:53 PM 98.1 °F - 46.0 °F 17% 29.84 in 10.0 mi South 6.9 mph 20.7 mph N/A   Clear
5:53 PM 96.8 °F - 42.8 °F 16% 29.83 in 10.0 mi SSE 13.8 mph 18.4 mph -   Partly Cloudy
6:53 PM 96.1 °F - 41.0 °F 15% 29.81 in 10.0 mi South 8.1 mph - N/A   Partly Cloudy
7:53 PM 95.0 °F - 43.0 °F 17% 29.81 in 10.0 mi South 8.1 mph - N/A   Partly Cloudy
8:53 PM 91.9 °F - 43.0 °F 18% 29.81 in 10.0 mi SSE 11.5 mph - N/A   Scattered Clouds
9:53 PM 86.0 °F - 44.6 °F 23% 29.82 in 10.0 mi SSE 8.1 mph - -   Scattered Clouds
10:02 PM 86.0 °F - 44.6 °F 23% 29.82 in 10.0 mi SSE 8.1 mph - -   Scattered Clouds
10:53 PM 84.0 °F - 44.1 °F 25% 29.84 in 10.0 mi SSE 9.2 mph - N/A   Clear
11:53 PM 81.0 °F - 43.0 °F 26% 29.86 in 10.0 mi South 5.8 mph - N/A   Clear